| time (UTC) | temp F | wind direction | speed MPH | gust MPH | rain 1hr in | rain 24hr in | rain mn in | humidity % | barometer mb |
| 20260506140032 | 56 | 191 | 10.0 | 19.0 | 0.00 | 0.00 | 0.00 | 77 | 1019.3 |
| 20260506134534 | 55 | 200 | 12.0 | 21.0 | 0.00 | 0.00 | 0.00 | 79 | 1019.1 |
| 20260506131538 | 54 | 191 | 7.0 | 13.0 | 0.00 | 0.00 | 0.00 | 81 | 1019.0 |
| 20260506130028 | 54 | 175 | 6.0 | 16.0 | 0.00 | 0.00 | 0.00 | 82 | 1018.9 |
| 20260506124526 | 53 | 173 | 5.0 | 19.0 | 0.00 | 0.00 | 0.00 | 82 | 1018.8 |
| 20260506121653 | 52 | 158 | 4.0 | 11.0 | 0.00 | 0.00 | 0.00 | 83 | 1018.5 |
| 20260506120108 | 53 | 155 | 4.0 | 10.0 | 0.00 | 0.00 | 0.00 | 83 | 1018.4 |
| 20260506114653 | 53 | 144 | 3.0 | 7.0 | 0.00 | 0.00 | 0.00 | 83 | 1018.3 |
| 20260506113028 | 53 | 142 | 6.0 | 11.0 | 0.00 | 0.00 | 0.00 | 83 | 1018.1 |
| 20260506104542 | 52 | 157 | 3.0 | 7.0 | 0.00 | 0.00 | 0.00 | 88 | 1017.7 |
| 20260506101531 | 49 | 144 | 2.0 | 7.0 | 0.00 | 0.00 | 0.00 | 94 | 1017.4 |
| 20260506100053 | 48 | 135 | 0.0 | 5.0 | 0.00 | 0.00 | 0.00 | 94 | 1017.4 |
| 20260506094532 | 48 | 135 | 0.0 | 4.0 | 0.00 | 0.00 | 0.00 | 95 | 1017.3 |
| 20260506093030 | 47 | 135 | 1.0 | 5.0 | 0.00 | 0.00 | 0.00 | 95 | 1017.2 |
| 20260506091528 | 47 | 135 | 0.0 | 2.0 | 0.00 | 0.00 | 0.00 | 96 | 1017.2 |
| 20260506090033 | 46 | 152 | 0.0 | 5.0 | 0.00 | 0.00 | 0.00 | 96 | 1017.1 |
| 20260506083028 | 46 | 214 | 0.0 | 4.0 | 0.00 | 0.00 | 0.00 | 96 | 1016.8 |
| 20260506081530 | 47 | 225 | 0.0 | 1.0 | 0.00 | 0.00 | 0.00 | 96 | 1016.8 |
| 20260506073032 | 46 | 207 | 0.0 | 4.0 | 0.00 | 0.00 | 0.00 | 95 | 1016.5 |
| 20260506071528 | 47 | 234 | 0.0 | 4.0 | 0.00 | 0.00 | 0.00 | 94 | 1016.4 |
| 20260506061646 | 48 | 270 | 0.0 | 0.0 | 0.00 | 0.00 | 0.00 | 92 | 1016.1 |
| 20260506044605 | 52 | 67 | 0.0 | 0.0 | 0.00 | 0.00 | 0.00 | 86 | 1015.4 |
| 20260506043029 | 53 | 67 | 0.0 | 2.0 | 0.00 | 0.00 | 0.00 | 83 | 1015.3 |
| 20260506041605 | 55 | 67 | 1.0 | 5.0 | 0.00 | 0.00 | 0.00 | 82 | 1015.2 |
| 20260506040033 | 55 | 33 | 2.0 | 6.0 | 0.00 | 0.00 | 0.00 | 80 | 1015.1 |
| 20260506034607 | 57 | 6 | 1.0 | 6.0 | 0.00 | 0.00 | 0.00 | 78 | 1014.8 |
| 20260506033031 | 59 | 14 | 8.0 | 12.0 | 0.00 | 0.00 | 0.00 | 73 | 1014.4 |
| 20260506030032 | 60 | 10 | 8.0 | 13.0 | 0.00 | 0.00 | 0.00 | 71 | 1014.2 |
| 20260506024530 | 62 | 3 | 8.0 | 14.0 | 0.00 | 0.00 | 0.00 | 69 | 1014.0 |
| 20260506021606 | 64 | 20 | 6.0 | 9.0 | 0.00 | 0.00 | 0.00 | 67 | 1013.9 |
| 20260506020030 | 64 | 11 | 8.0 | 11.0 | 0.00 | 0.00 | 0.00 | 66 | 1013.8 |
| 20260506014531 | 65 | 5 | 8.0 | 13.0 | 0.00 | 0.00 | 0.00 | 65 | 1013.8 |
| 20260506013032 | 66 | 2 | 8.0 | 11.0 | 0.00 | 0.00 | 0.00 | 64 | 1013.7 |
| 20260506011530 | 66 | 1 | 7.0 | 11.0 | 0.00 | 0.00 | 0.00 | 63 | 1013.6 |
| 20260506010031 | 67 | 358 | 8.0 | 13.0 | 0.00 | 0.00 | 0.00 | 61 | 1013.6 |
| 20260506004532 | 69 | 2 | 8.0 | 12.0 | 0.00 | 0.00 | 0.00 | 60 | 1013.5 |
| 20260506003103 | 69 | 356 | 6.0 | 10.0 | 0.00 | 0.00 | 0.00 | 60 | 1013.5 |
| 20260506001534 | 69 | 5 | 7.0 | 10.0 | 0.00 | 0.00 | 0.00 | 60 | 1013.5 |
| 20260506000030 | 69 | 7 | 6.0 | 11.0 | 0.00 | 0.00 | 0.00 | 60 | 1013.7 |
| 20260505234605 | 69 | 360 | 7.0 | 11.0 | 0.00 | 0.00 | 0.00 | 59 | 1013.8 |
| 20260505233032 | 69 | 13 | 7.0 | 11.0 | 0.00 | 0.00 | 0.00 | 60 | 1013.9 |
| 20260505231531 | 69 | 358 | 7.0 | 12.0 | 0.00 | 0.00 | 0.00 | 60 | 1013.9 |
| 20260505230031 | 69 | 354 | 8.0 | 12.0 | 0.00 | 0.00 | 0.00 | 60 | 1014.0 |
| 20260505224532 | 68 | 1 | 7.0 | 12.0 | 0.00 | 0.00 | 0.00 | 60 | 1014.1 |
| 20260505223029 | 68 | 356 | 8.0 | 11.0 | 0.00 | 0.00 | 0.00 | 61 | 1014.1 |
| 20260505221532 | 68 | 2 | 8.0 | 12.0 | 0.00 | 0.00 | 0.00 | 61 | 1014.3 |
| 20260505220030 | 68 | 4 | 9.0 | 13.0 | 0.00 | 0.00 | 0.00 | 61 | 1014.4 |
| 20260505214530 | 68 | 355 | 8.0 | 12.0 | 0.00 | 0.00 | 0.00 | 61 | 1014.5 |
| 20260505213029 | 68 | 354 | 7.0 | 12.0 | 0.00 | 0.00 | 0.00 | 61 | 1014.5 |
| 20260505211530 | 68 | 10 | 8.0 | 12.0 | 0.00 | 0.00 | 0.00 | 62 | 1014.5 |
| 20260505210034 | 67 | 1 | 6.0 | 12.0 | 0.00 | 0.00 | 0.00 | 62 | 1014.6 |
| 20260505204604 | 67 | 2 | 7.0 | 12.0 | 0.00 | 0.00 | 0.00 | 62 | 1014.7 |
| 20260505203032 | 67 | 353 | 6.0 | 11.0 | 0.00 | 0.00 | 0.00 | 63 | 1014.8 |
| 20260505201529 | 66 | 350 | 6.0 | 12.0 | 0.00 | 0.00 | 0.00 | 64 | 1014.9 |
| 20260505193147 | 65 | 357 | 8.0 | 13.0 | 0.00 | 0.00 | 0.00 | 66 | 1015.2 |
| 20260505184529 | 64 | 351 | 7.0 | 11.0 | 0.00 | 0.00 | 0.00 | 67 | 1015.3 |
| 20260505183030 | 63 | 1 | 6.0 | 10.0 | 0.00 | 0.00 | 0.00 | 68 | 1015.4 |
| 20260505180030 | 62 | 8 | 7.0 | 12.0 | 0.00 | 0.00 | 0.00 | 70 | 1015.4 |
| 20260505173029 | 62 | 11 | 6.0 | 12.0 | 0.00 | 0.00 | 0.00 | 71 | 1015.2 |
| 20260505171529 | 62 | 21 | 7.0 | 12.0 | 0.00 | 0.00 | 0.00 | 71 | 1015.1 |
| 20260505164530 | 61 | 359 | 6.0 | 10.0 | 0.00 | 0.00 | 0.00 | 71 | 1015.1 |
| 20260505163107 | 62 | 43 | 5.0 | 11.0 | 0.00 | 0.00 | 0.00 | 70 | 1015.0 |
| 20260505160108 | 62 | 44 | 3.0 | 8.0 | 0.00 | 0.00 | 0.00 | 68 | 1015.0 |
| 20260505153029 | 60 | 46 | 4.0 | 7.0 | 0.00 | 0.00 | 0.00 | 72 | 1015.0 |
| 20260505151607 | 61 | 28 | 2.0 | 5.0 | 0.00 | 0.00 | 0.00 | 69 | 1014.9 |
| 20260505150146 | 60 | 126 | 1.0 | 4.0 | 0.00 | 0.00 | 0.00 | 69 | 1014.8 |